Location: Gro�bocka
(50.8204°N, 11.9702°E)
Time: 07:36:02
(UTC+00:00)

USA 215 - Pass Details

Date: 29 October 2020
Orbit: 1102 x 1106 km, 123.0° (Epoch: 28 November)

Event Time Altitude Azimuth Distance (km) Brightness Sun altitude
Exits shadow 16:22:47 - 71° (ENE) 3,297 5.1 -5.5°
Reaches altitude 10° 16:23:40 10° 69° (ENE) 2,965 4.9 -5.7°
Maximum altitude 16:29:58 53° 355° (N) 1,334 3.7 -6.6°
Drops below altitude 10° 16:36:17 10° 281° (W) 2,964 6.8 -7.6°
Sets 16:38:49 0° 277° (W) 3,922 7.8 -8.0°
